User: anonymous   Login
Location: Capvern
(43.1036°N, 0.3160°E)
Time: 23:41:40
(UTC+00:00)
Language:

Cosmos 489 Rocket - Orbit

View from above orbital plane
View from above orbital plane
View from above satellite
View from above satellite

Ground track
Ground track

The orbit data is extracted from the following two-line orbital elements,

1 06020U 72035B   22276.52042517  .00000165  00000-0  18419-3 0  9998
2 06020  74.0192 281.9947 0020881 185.9903 288.9794 13.78890640535520
Epoch (UTC): 03 October 2022 12:29:24
Eccentricity: 0.0020881
inclination: 74.0192°
perigee height: 952 km
apogee height: 983 km
right ascension of ascending node: 281.9947°
argument of perigee: 185.9903°
revolutions per day: 13.78890640
mean anomaly at epoch: 288.9794°
orbit number at epoch: 53552

The dashed part of the orbit path shows where the satellite is in the earth's shadow,  

DLR